Location: Unspecified
(50.0000°N, 15.0000°E)
Time: 03:54:43
(UTC+01:00)

ISS - Pass Details

Date: 01 December 2021
Orbit: 413 x 422 km, 51.6° (Epoch: 22 January)

Event Time Altitude Azimuth Distance (km) Brightness Sun altitude
Rises 16:59:26 0° 276° (W) 2,385 1.3 -9.1°
Reaches altitude 10° 17:01:33 10° 279° (W) 1,517 0.1 -9.4°
Maximum altitude 17:04:56 64° 2° (N) 476 -3.6 -9.9°
Enters shadow 17:07:41 15° 83° (E) 1,256 -2.0 -10.3°
